User: anonymous   Login
Location: Unspecified
(0.0000°N, 0.0000°E)
Time: 17:11:36
(UTC+01:00)
Language:

ARIANE 44L R/B - Orbit

View from above orbital plane
View from above orbital plane
View from above satellite
View from above satellite

Ground track
Ground track

The orbit data is extracted from the following two-line orbital elements,

1 26901U 01039B   14329.87842094  .00003361  00000-0  14141-2 0  1631
2 26901 007.1838 248.6943 6960607 124.3842 351.0690 02.67519410117953
Epoch (UTC): 25 November 2014 21:04:55
Eccentricity: 0.6960607
inclination: 7.1838°
perigee height: 284 km
apogee height: 30798 km
right ascension of ascending node: 248.6943°
argument of perigee: 124.3842°
revolutions per day: 2.67519410
mean anomaly at epoch: 351.0690°
orbit number at epoch: 11795

The dashed part of the orbit path shows where the satellite is in the earth's shadow,  

DLR